Kars, Turkey

8:32 PM +03 on December 14, 2017 (GMT +0300)
Kars

Weather History for LTCF - April, 2013

Change the Weather History Date:

Wednesday, April 3, 2013

  Actual Average Record
Temperature  
Mean Temperature 48 °F -  
Max Temperature 61 °F 53 °F - ()
Min Temperature 34 °F 33 °F - ()
Degree Days  
Heating Degree Days 18    
Moisture  
Dew Point 38 °F    
Average Humidity 72    
Maximum Humidity 100    
Minimum Humidity 25    
Precipitation  
Precipitation 0.00 in 0.06 in - ()
Sea Level Pressure  
Sea Level Pressure 30.07 in    
Wind  
Wind Speed 4 mph ()    
Max Wind Speed 16 mph    
Max Gust Speed 17 mph    
Visibility 5.4 miles    
Events Fog    
T = Trace of Precipitation, MM = Missing Value Source: Averaged Metar Reports

Daily Weather History Graph

Daily Weather History Graph

Search for Another Location

Airport or City:

Trip Planner

Search our weather history database for the weather conditions in past years. The results will help you decide how hot, cold, wet, or windy it might be!

Date:

Astronomy

Apr. 03, 2013 Rise Set
Actual Time 5:48 AM EEST 6:34 PM EEST
Civil Twilight 5:20 AM EEST 7:01 PM EEST
Nautical Twilight 4:47 AM EEST 7:34 PM EEST
Astronomical Twilight 4:14 AM EEST 8:08 PM EEST
Moon 1:12 AM EEST (4/3) 11:20 AM EEST (4/3)
Length of Visible Light 13h 41m
Length of Day
12h 46m
Waning Gibbous, 48% of the Moon is Illuminated
Apr 3
Waning Gibbous
Apr 10
New
Apr 18
First Quarter
Apr 25
Full
May 2
Last Quarter

Hourly Weather History & Observations

Time (EEST) Temp. Windchill Dew Point Humidity Pressure Visibility Wind Dir Wind Speed Gust Speed Precip Events Conditions
12:50 AM 39.2 °F - 39.2 °F 100% 30.09 in 6.2 mi Calm Calm - N/A   Mostly Cloudy
1:50 AM 39.2 °F - 39.2 °F 100% 30.06 in 6.2 mi Calm Calm - N/A   Mostly Cloudy
2:42 AM 35.6 °F - 35.6 °F 100% 30.09 in 3.1 mi Calm Calm - N/A   Mostly Cloudy
3:00 AM 36 °F - 36 °F 100%  in 1 mi Calm Calm - - Fog Heavy Fog
3:50 AM 39.2 °F - 39.2 °F 100% 30.09 in 1.2 mi Variable 2.3 mph - N/A   Mostly Cloudy
4:50 AM 39.2 °F 37.0 °F 39.2 °F 100% 30.09 in 3.1 mi WSW 3.5 mph - N/A   Mostly Cloudy
5:50 AM 39.2 °F 35.9 °F 39.2 °F 100% 30.09 in 6.2 mi SSW 4.6 mph - N/A   Mostly Cloudy
6:50 AM 39.2 °F 35.0 °F 39.2 °F 100% 30.09 in 3.1 mi SSW 5.8 mph - N/A   Mostly Cloudy
7:50 AM 39.2 °F - 39.2 °F 100% 30.12 in 6.2 mi South 2.3 mph - N/A   Mostly Cloudy
8:50 AM 42.8 °F - 42.8 °F 100% 30.12 in 6.2 mi Variable 1.2 mph - N/A   Mostly Cloudy
9:00 AM 43 °F - 42 °F 93%  in 6 mi SSW 1.2 mph - -   Partly Cloudy
9:50 AM 48.2 °F - 42.8 °F 82% 30.09 in 6.2 mi Calm Calm - N/A   Scattered Clouds
10:50 AM 55.4 °F - 41.0 °F 58% 30.09 in 6.2 mi Variable 1.2 mph - N/A   Scattered Clouds
11:50 AM 59.0 °F - 42.8 °F 55% 30.06 in 6.2 mi Variable 5.8 mph 17.3 mph N/A   Scattered Clouds
12:50 PM 59.0 °F - 39.2 °F 48% 30.06 in 6.2 mi SSW 10.4 mph - N/A   Scattered Clouds
1:50 PM 60.8 °F - 39.2 °F 45% 30.04 in 6.2 mi South 13.8 mph - N/A   Scattered Clouds
2:50 PM 62.6 °F - 35.6 °F 37% 30.04 in 6.2 mi SW 16.1 mph - N/A   Scattered Clouds
3:00 PM 62 °F - 35 °F 25%  in 6 mi SW 16.1 mph - -   Partly Cloudy
3:50 PM 59.0 °F - 33.8 °F 39% 30.04 in 6.2 mi SSW 15.0 mph - N/A   Scattered Clouds
4:50 PM 59.0 °F - 35.6 °F 42% 30.04 in 6.2 mi South 16.1 mph - N/A   Scattered Clouds
5:50 PM 55.4 °F - 37.4 °F 51% 30.01 in 6.2 mi SSE 13.8 mph - N/A   Scattered Clouds
6:50 PM 51.8 °F - 37.4 °F 58% 30.01 in 6.2 mi SSE 13.8 mph - N/A   Scattered Clouds
7:50 PM 50.0 °F - 35.6 °F 58% 30.04 in 6.2 mi SSE 12.7 mph - N/A   Scattered Clouds
8:50 PM 48.2 °F - 35.6 °F 62% 30.06 in 6.2 mi SSW 6.9 mph - N/A   Partly Cloudy
9:00 PM 49 °F - 35 °F 48%  in 6 mi SSW 6.9 mph - -   Scattered Clouds
9:50 PM 48.2 °F - 35.6 °F 62% 30.06 in - West 1.2 mph - N/A   Clear
10:50 PM 46.4 °F - 35.6 °F 66% 30.06 in - Variable 1.2 mph - N/A   Clear
11:50 PM 42.8 °F - 35.6 °F 76% 30.06 in - Calm Calm - N/A   Clear